<?xml version="1.0" encoding="UTF-8" standalone="no" ?>
<gpx xmlns="http://www.topografix.com/GPX/1/1" xmlns:xsi="http://www.w3.org/2001/XMLSchema-instance" xsi:schemaLocation="http://www.topografix.com/GPX/1/1 http://www.topografix.com/GPX/1/1/gpx.xsd" version="1.1" creator="VisuGPX - https://www.visugpx.com">
  <metadata>
    <name>le fousseret  Niv 5</name>
    <desc><![CDATA[parcours de montégut bourjac au Fousseret]]></desc>
  </metadata>
  <trk>
    <name><![CDATA[le fousseret  Niv 5_1]]></name>
    <trkseg>
      <trkpt lat="43.28075" lon="0.99202">
        <ele>319</ele>
        <time>2012-05-19T19:06:10Z</time>
      </trkpt>
      <trkpt lat="43.2806" lon="0.99246">
        <ele>317</ele>
        <time>2012-05-19T19:06:10Z</time>
      </trkpt>
      <trkpt lat="43.28025" lon="0.99353">
        <ele>313</ele>
        <time>2012-05-19T19:06:10Z</time>
      </trkpt>
      <trkpt lat="43.27933" lon="0.99473">
        <ele>312</ele>
        <time>2012-05-19T19:06:10Z</time>
      </trkpt>
      <trkpt lat="43.27852" lon="0.99607">
        <ele>311</ele>
        <time>2012-05-19T19:06:10Z</time>
      </trkpt>
      <trkpt lat="43.2779" lon="0.99716">
        <ele>308</ele>
        <time>2012-05-19T19:06:10Z</time>
      </trkpt>
      <trkpt lat="43.27742" lon="0.99847">
        <ele>302</ele>
        <time>2012-05-19T19:06:10Z</time>
      </trkpt>
      <trkpt lat="43.27721" lon="0.99904">
        <ele>300</ele>
        <time>2012-05-19T19:06:10Z</time>
      </trkpt>
      <trkpt lat="43.27687" lon="0.9996">
        <ele>296</ele>
        <time>2012-05-19T19:06:10Z</time>
      </trkpt>
      <trkpt lat="43.27644" lon="1.0003">
        <ele>290</ele>
        <time>2012-05-19T19:06:10Z</time>
      </trkpt>
      <trkpt lat="43.27613" lon="1.00071">
        <ele>286</ele>
        <time>2012-05-19T19:06:10Z</time>
      </trkpt>
      <trkpt lat="43.27591" lon="1.00081">
        <ele>286</ele>
        <time>2012-05-19T19:06:10Z</time>
      </trkpt>
      <trkpt lat="43.27568" lon="1.00075">
        <ele>285</ele>
        <time>2012-05-19T19:06:10Z</time>
      </trkpt>
      <trkpt lat="43.27536" lon="1.00068">
        <ele>283</ele>
        <time>2012-05-19T19:06:10Z</time>
      </trkpt>
      <trkpt lat="43.27443" lon="1.00275">
        <ele>272</ele>
        <time>2012-05-19T19:06:10Z</time>
      </trkpt>
      <trkpt lat="43.27425" lon="1.00318">
        <ele>271</ele>
        <time>2012-05-19T19:06:10Z</time>
      </trkpt>
      <trkpt lat="43.27459" lon="1.00347">
        <ele>269</ele>
        <time>2012-05-19T19:06:10Z</time>
      </trkpt>
      <trkpt lat="43.27496" lon="1.00403">
        <ele>267</ele>
        <time>2012-05-19T19:06:10Z</time>
      </trkpt>
      <trkpt lat="43.27527" lon="1.00467">
        <ele>267</ele>
        <time>2012-05-19T19:06:10Z</time>
      </trkpt>
      <trkpt lat="43.27556" lon="1.00508">
        <ele>268</ele>
        <time>2012-05-19T19:06:10Z</time>
      </trkpt>
      <trkpt lat="43.27574" lon="1.0057">
        <ele>270</ele>
        <time>2012-05-19T19:06:10Z</time>
      </trkpt>
      <trkpt lat="43.27585" lon="1.00684">
        <ele>278</ele>
        <time>2012-05-19T19:06:10Z</time>
      </trkpt>
      <trkpt lat="43.2759" lon="1.00768">
        <ele>285</ele>
        <time>2012-05-19T19:06:10Z</time>
      </trkpt>
      <trkpt lat="43.27576" lon="1.00825">
        <ele>289</ele>
        <time>2012-05-19T19:06:10Z</time>
      </trkpt>
      <trkpt lat="43.27572" lon="1.00932">
        <ele>292</ele>
        <time>2012-05-19T19:06:10Z</time>
      </trkpt>
      <trkpt lat="43.27574" lon="1.0103">
        <ele>295</ele>
        <time>2012-05-19T19:06:10Z</time>
      </trkpt>
      <trkpt lat="43.27567" lon="1.01059">
        <ele>296</ele>
        <time>2012-05-19T19:06:10Z</time>
      </trkpt>
      <trkpt lat="43.27529" lon="1.01052">
        <ele>294</ele>
        <time>2012-05-19T19:06:10Z</time>
      </trkpt>
      <trkpt lat="43.27532" lon="1.0118">
        <ele>295</ele>
        <time>2012-05-19T19:06:10Z</time>
      </trkpt>
      <trkpt lat="43.27514" lon="1.01339">
        <ele>288</ele>
        <time>2012-05-19T19:06:10Z</time>
      </trkpt>
      <trkpt lat="43.27489" lon="1.01553">
        <ele>280</ele>
        <time>2012-05-19T19:06:10Z</time>
      </trkpt>
      <trkpt lat="43.27432" lon="1.02057">
        <ele>277</ele>
        <time>2012-05-19T19:06:10Z</time>
      </trkpt>
      <trkpt lat="43.27431" lon="1.02086">
        <ele>276</ele>
        <time>2012-05-19T19:06:10Z</time>
      </trkpt>
      <trkpt lat="43.27296" lon="1.02146">
        <ele>269</ele>
        <time>2012-05-19T19:06:10Z</time>
      </trkpt>
      <trkpt lat="43.27168" lon="1.02205">
        <ele>265</ele>
        <time>2012-05-19T19:06:10Z</time>
      </trkpt>
      <trkpt lat="43.27056" lon="1.02235">
        <ele>261</ele>
        <time>2012-05-19T19:06:10Z</time>
      </trkpt>
      <trkpt lat="43.27031" lon="1.0224">
        <ele>261</ele>
        <time>2012-05-19T19:06:10Z</time>
      </trkpt>
      <trkpt lat="43.26981" lon="1.02261">
        <ele>259</ele>
        <time>2012-05-19T19:06:10Z</time>
      </trkpt>
      <trkpt lat="43.26857" lon="1.02301">
        <ele>256</ele>
        <time>2012-05-19T19:06:10Z</time>
      </trkpt>
      <trkpt lat="43.26795" lon="1.0219">
        <ele>256</ele>
        <time>2012-05-19T19:06:10Z</time>
      </trkpt>
      <trkpt lat="43.2676" lon="1.02131">
        <ele>255</ele>
        <time>2012-05-19T19:06:10Z</time>
      </trkpt>
      <trkpt lat="43.26733" lon="1.02052">
        <ele>256</ele>
        <time>2012-05-19T19:06:10Z</time>
      </trkpt>
      <trkpt lat="43.26652" lon="1.0206">
        <ele>255</ele>
        <time>2012-05-19T19:06:10Z</time>
      </trkpt>
      <trkpt lat="43.26901" lon="1.05147">
        <ele>251</ele>
        <time>2012-05-19T19:06:10Z</time>
      </trkpt>
      <trkpt lat="43.27201" lon="1.05109">
        <ele>254</ele>
        <time>2012-05-19T19:06:10Z</time>
      </trkpt>
      <trkpt lat="43.27239" lon="1.0511">
        <ele>255</ele>
        <time>2012-05-19T19:06:10Z</time>
      </trkpt>
      <trkpt lat="43.27264" lon="1.05151">
        <ele>257</ele>
        <time>2012-05-19T19:06:10Z</time>
      </trkpt>
      <trkpt lat="43.27312" lon="1.05261">
        <ele>264</ele>
        <time>2012-05-19T19:06:10Z</time>
      </trkpt>
      <trkpt lat="43.27342" lon="1.05321">
        <ele>271</ele>
        <time>2012-05-19T19:06:10Z</time>
      </trkpt>
      <trkpt lat="43.27374" lon="1.05419">
        <ele>273</ele>
        <time>2012-05-19T19:06:10Z</time>
      </trkpt>
      <trkpt lat="43.27386" lon="1.05516">
        <ele>268</ele>
        <time>2012-05-19T19:06:10Z</time>
      </trkpt>
      <trkpt lat="43.27411" lon="1.05629">
        <ele>263</ele>
        <time>2012-05-19T19:06:10Z</time>
      </trkpt>
      <trkpt lat="43.2743" lon="1.05691">
        <ele>262</ele>
        <time>2012-05-19T19:06:10Z</time>
      </trkpt>
      <trkpt lat="43.27494" lon="1.05669">
        <ele>267</ele>
        <time>2012-05-19T19:06:10Z</time>
      </trkpt>
      <trkpt lat="43.27605" lon="1.05869">
        <ele>259</ele>
        <time>2012-05-19T19:06:10Z</time>
      </trkpt>
      <trkpt lat="43.27692" lon="1.0599">
        <ele>257</ele>
        <time>2012-05-19T19:06:10Z</time>
      </trkpt>
      <trkpt lat="43.27749" lon="1.06073">
        <ele>256</ele>
        <time>2012-05-19T19:06:10Z</time>
      </trkpt>
      <trkpt lat="43.27789" lon="1.06143">
        <ele>255</ele>
        <time>2012-05-19T19:06:10Z</time>
      </trkpt>
      <trkpt lat="43.27807" lon="1.06129">
        <ele>256</ele>
        <time>2012-05-19T19:06:10Z</time>
      </trkpt>
      <trkpt lat="43.27829" lon="1.06084">
        <ele>258</ele>
        <time>2012-05-19T19:06:10Z</time>
      </trkpt>
      <trkpt lat="43.27967" lon="1.06084">
        <ele>260</ele>
        <time>2012-05-19T19:06:10Z</time>
      </trkpt>
      <trkpt lat="43.27966" lon="1.06118">
        <ele>259</ele>
        <time>2012-05-19T19:06:10Z</time>
      </trkpt>
      <trkpt lat="43.27996" lon="1.06251">
        <ele>262</ele>
        <time>2012-05-19T19:06:10Z</time>
      </trkpt>
      <trkpt lat="43.28021" lon="1.06275">
        <ele>268</ele>
        <time>2012-05-19T19:06:10Z</time>
      </trkpt>
      <trkpt lat="43.28081" lon="1.0629">
        <ele>285</ele>
        <time>2012-05-19T19:06:10Z</time>
      </trkpt>
      <trkpt lat="43.28095" lon="1.06301">
        <ele>288</ele>
        <time>2012-05-19T19:06:10Z</time>
      </trkpt>
      <trkpt lat="43.28108" lon="1.0633">
        <ele>290</ele>
        <time>2012-05-19T19:06:10Z</time>
      </trkpt>
      <trkpt lat="43.28118" lon="1.06379">
        <ele>294</ele>
        <time>2012-05-19T19:06:10Z</time>
      </trkpt>
      <trkpt lat="43.28118" lon="1.06411">
        <ele>297</ele>
        <time>2012-05-19T19:06:10Z</time>
      </trkpt>
      <trkpt lat="43.28127" lon="1.06422">
        <ele>299</ele>
        <time>2012-05-19T19:06:10Z</time>
      </trkpt>
      <trkpt lat="43.28119" lon="1.06534">
        <ele>306</ele>
        <time>2012-05-19T19:06:10Z</time>
      </trkpt>
      <trkpt lat="43.2813" lon="1.06542">
        <ele>307</ele>
        <time>2012-05-19T19:06:10Z</time>
      </trkpt>
      <trkpt lat="43.28144" lon="1.06555">
        <ele>308</ele>
        <time>2012-05-19T19:06:10Z</time>
      </trkpt>
    </trkseg>
  </trk>
</gpx>